SCP
0 0 0 0 0 0 0 0 0 0 0 0 -0 -0 -0 0 -0 0 0 0 0 0 -0 -0 -0 -0 0 0 0 0 0 0 0 0 0 0 0 0 0 0 0 0 0 0 0 0 0 0 0 0 0 0 0 0
0 0 0 0 0 0 0 0 0 0 0 0 0 0 0 -0 -0 -0 0 0 -0 -0 -0 -0 -0 -0 0 -0 0 0 0 0 0 0 0 0 0 0 0 0 0 0 0 0 0 0 0 0 0 0 0 0 0 0
0 0 0 0 0 0 0 0 0 0 0 -0 -0 -0 -0 0 0 0 0 -0 0 0 -0 -0 0 0 0 -0 -0 0 0 0 0 0 0 0 0 0 0 0 0 0 0 0 0 0 0 0 0 0 0 0 0 0
0 0 0 -0 0 0 0 -0 -0 -0 -0 0 0 0 0 0 -0 0 0 -0 0 -0 0 0 -0 0 -0 -0 0 0 0 0 0 -0 0 0 0 0 0 0 0 0 0 0 0 0 0 0 0 0 0 0 0 0
0 0 0 -0 -0 0 -0 -0 -0 -0 -0 -0 -0 -0 -0 -0 -0 0 0 -0 0 -0 0 0 -0 0 0 0 0 0 0 -0 0 0 0 0 0 0 0 0 0 0 0 0 0 0 0 0 0 0 0 0 0 0
0 0 0 -0 -0 -0 -0 -0 -0 -0 -0 -0 -0 -0 -0 0 0 0 0 0 0 0 0 0 0 0 0 -0 -0 0 -0 0 0 0 -0 -0 -0 0 0 0 0 0 0 0 0 0 0 0 0 0 0 0 0 0
0 0 0 -0 -0 -0 -0 -0 -0 -0 -0 -0 -0 -0 0 0 0 0 0 0 0 0 0 0 -0 0 0 0 0 0 -0 0 0 0 0 -0 -0 0 0 0 0 0 0 0 0 0 -0 0 0 0 0 0 0 0
0 0 0 0 -0 -0 -0 -0 -0 -0 -0 -0 -0 -0 0 0 0 0 0 0 0 0 0 0 0 0 0 -0 0 -0 0 0 0 0 0 0 0 0 0 0 0 0 0 0 0 0 0 -0 0 -0 0 0 0 0
0 0 0 0 -0 -0 -0 -0 -0 -0 -0 -0 -0 0 0 0 0 0 0 0 0 0 0 0 0 0 0 0 0 -0 0 0 0 0 0 0 0 0 0 0 0 0 0 0 0 0 0 0 0 0 -0 0 0 0
0 0 0 0 -0 -0 -0 -0 -0 -0 -0 -0 0 0 0 0 -0 -0 0 0 0 0 0 0 0 0 0 0 0 0 0 0 0 0 0 0 0 0 0 0 0 0 0 0 0 0 0 0 0 0 0 0 0 0
0 0 0 0 0 -0 -0 -0 -0 -0 -0 0 -0 0 0 -0 0 0 0 0 0 0 0 0 0 0 0 0 0 0 0 0 0 0 0 0 0 0 0 0 0 0 0 0 0 0 0 0 0 0 -0 0 0 0
0 0 0 0 0 0 -0 -0 -0 0 0 0 0 0 -0 -0 0 0 0 0 0 0 0 0 0 0 0 0 0 0 0 0 0 0 0 0 0 0 0 0 0 0 0 0 0 0 0 0 0 0 0 0 0 0
0 0 0 0 0 0 0 -0 -0 0 0 0 0 0 0 0 0 0 0 0 0 0 0 0 0 0 0 0 0 0 0 0 0 0 0 0 0 0 0 0 0 0 0 0 0 0 0 0 0 0 0 -0 -0 0
0 0 0 0 0 0 0 0 0 0 0 0 0 0 0 0 0 0 0 0 0 0 0 0 0 0 0 0 0 0 0 0 0 0 0 0 0 0 0 0 0 0 0 0 0 0 0 0 -0 -0 -0 -0 -0 -0
-0 0 -0 0 -0 -0 -0 0 0 0 0 0 0 0 0 0 0 0 0 0 0 0 0 0 0 0 0 0 0 0 0 0 0 0 0 0 0 0 0 0 0 0 0 0 0 0 -0 -0 -0 -0 -0 -0 -0 -0
-0 -0 0 0 -0 -0 -0 0 0 0 0 0 0 0 0 0 0 0 0 0 0 0 0 0 0 0 0 0 0 0 0 0 0 0 0 0 0 0 0 0 0 0 0 0 0 -0 -0 -0 0 0 -0 -0 -0 -0
-0 0 0 -0 -0 -0 0 0 0 0 0 0 0 0 0 0 0 0 0 0 0 0 0 0 0 0 0 0 0 0 0 0 0 0 0 0 0 0 0 0 0 0 0 0 -0 0 0 0 0 0 0 -0 -0 -0
0 0 0 -0 0 0 0 0 0 0 0 0 0 0 0 0 0 0 0 0 0 0 0 0 0 0 0 0 0 0 0 0 0 0 0 0 0 0 0 0 0 0 0 -0 -0 0 0 0 0 0 0 0 0 0
0 -0 -0 -0 0 0 0 0 0 0 0 0 0 0 -0 0 0 0 0 0 0 0 0 0 0 0 0 0 0 0 0 0 0 0 0 0 0 0 0 0 0 0 -0 -0 -0 -0 0 0 0 0 0 0 0 0
-0 -0 -0 -0 0 0 0 0 0 0 0 0 0 0 0 0 0 0 0 0 0 0 0 0 0 0 0 0 0 0 0 0 0 0 0 0 0 0 0 0 0 -0 -0 -0 -0 0 -0 -0 0 0 0 0 0 0
-0 -0 -0 0 0 0 0 0 0 0 0 0 0 0 0 0 0 0 0 0 0 0 0 0 0 0 0 0 0 0 0 0 0 0 0 0 -0 -0 -0 -0 0 -0 -0 -0 -0 -0 0 0 0 0 0 0 0 0
0 -0 0 -0 0 0 0 0 0 0 0 0 0 0 0 0 0 0 0 0 0 0 0 0 0 0 0 0 0 0 0 0 0 0 0 0 0 -0 -0 -0 0 0 0 0 0 0 0 0 0 0 0 0 0 0
-0 0 0 0 0 0 0 0 0 0 0 0 0 0 0 0 0 0 0 0 0 0 0 0 0 0 0 0 0 0 0 0 0 0 0 0 -0 -0 -0 0 0 -0 0 0 0 0 0 0 0 0 0 0 0 0
0 0 0 0 0 0 0 0 0 0 0 0 -0 -0 0 0 0 0 0 0 0 0 0 0 0 0 0 0 0 0 0 0 0 0 0 0 0 0 -0 0 0 0 0 0 0 0 0 0 0 0 0 0 0 0
0 0 0 0 -0 0 0 0 0 0 0 0 0 -0 0 0 0 0 0 0 0 0 0 0 0 0 0 0 -0 -0 0 0 0 0 0 0 0 0 0 0 0 0 0 0 0 0 0 0 0 0 0 0 0 0
0 0 0 -0 0 0 0 0 0 0 0 0 0 0 0 0 0 0 0 -0 0 0 0 0 0 0 0 0 0 0 0 0 0 0 0 0 0 0 0 0 0 0 0 0 0 0 0 0 0 0 0 0 0 0
0 0 0 0 0 0 0 0 -0 -0 0 0 0 0 0 0 0 0 0 0 0 0 0 0 0 -0 0 0 0 0 0 0 0 0 0 0 0 0 0 0 0 0 0 0 0 0 0 0 0 0 0 0 0 0
0 0 0 -0 -0 0 0 0 0 0 0 0 0 0 0 -0 -0 -0 -0 -0 -0 0 0 0 0 0 0 0 -0 0 0 0 0 0 0 0 0 0 0 0 0 0 0 0 0 0 0 0 0 0 0 0 0 0
0 0 0 0 0 0 0 0 0 0 -0 -0 -0 0 0 0 -0 -0 -0 0 -0 -0 0 0 0 0 0 0 0 0 0 0 0 0 0 0 0 0 0 0 0 0 0 0 0 0 0 0 0 0 0 0 0 0
0 0 0 0 0 0 0 0 -0 0 0 0 0 0 0 0 0 0 0 0 0 0 -0 -0 -0 -0 0 -0 0 0 0 0 0 0 0 0 0 0 0 0 0 0 0 0 0 0 0 0 0 0 0 0 0 0
0 0 0 0 0 0 0 0 0 0 0 0 0 0 0 0 0 0 0 0 0 0 0 0 0 0 0 -0 0 0 0 0 0 0 0 0 0 0 0 0 0 0 0 0 0 0 0 0 0 0 0 0 0 0
0 0 0 0 0 0 0 0 0 0 0 0 0 -0 0 0 0 0 0 0 0 0 0 0 0 0 0 0 0 0 0 0 0 0 0 0 0 0 0 0 0 0 0 0 0 0 0 0 0 0 0 0 0 0
0 0 0 0 0 0 0 0 0 0 -0 0 0 0 0 0 0 0 0 0 0 0 0 0 0 0 0 0 0 0 0 0 0 0 0 0 0 0 0 0 0 0 0 0 0 0 0 0 0 0 0 0 0 0
Wind_Speed_500mb
68 67 66 64 63 64 62 58 56 52 46 39 34 35 34 35 33 27 6 10 8 9 22 13 24 27 24 22 4 15 8 16 11 9 5 3 5 5 9 5 5 6 6 4 4 2 3 6 7 6 8 15 24 28
66 66 64 63 63 64 61 58 53 47 41 35 31 32 32 33 32 26 19 15 18 15 12 25 10 15 9 24 11 16 7 3 5 6 5 4 7 8 5 5 9 7 3 4 6 3 7 14 3 4 15 30 40 42
64 64 62 63 63 63 61 55 46 44 45 40 36 33 30 31 30 33 28 7 14 9 17 10 12 14 11 21 33 7 7 8 9 6 5 3 12 4 5 3 4 7 15 6 7 3 19 4 18 25 34 41 44 39
61 62 60 62 63 64 61 48 46 52 46 42 37 32 28 25 28 28 12 10 5 4 4 4 12 9 18 7 12 15 10 10 10 15 12 7 7 9 5 4 7 4 7 7 6 10 25 12 33 37 44 47 49 48
60 60 59 60 61 62 56 51 54 49 46 41 33 25 21 20 18 21 20 17 13 8 4 19 6 7 12 16 15 10 12 12 10 11 10 3 6 9 9 7 7 5 5 5 8 12 11 22 41 53 56 56 56 59
61 59 59 59 60 61 54 56 51 48 46 38 29 22 16 8 10 6 8 7 7 14 7 7 14 14 17 8 12 16 17 16 9 11 8 8 7 8 6 5 6 26 27 20 8 31 26 38 47 48 57 59 60 60
60 58 57 59 61 60 53 56 50 45 43 29 22 19 11 15 13 10 7 11 6 2 7 10 15 11 10 11 20 24 8 20 23 12 8 8 6 11 6 5 12 18 17 24 29 38 27 42 43 53 55 59 60 56
57 57 56 58 61 56 55 56 48 42 34 20 14 15 18 14 10 13 11 11 11 5 4 3 7 10 3 4 3 18 11 5 8 10 9 10 6 8 6 14 13 12 13 27 29 31 30 37 40 54 57 57 59 52
57 56 57 58 57 50 57 57 48 38 23 11 10 6 3 4 3 4 6 6 14 10 4 7 6 6 6 12 9 8 1 5 6 6 5 10 5 4 8 20 14 18 17 20 25 27 42 47 48 52 54 60 58 56
57 56 58 56 52 45 55 60 51 40 19 5 7 3 2 4 14 11 2 4 6 6 6 7 6 5 4 2 8 1 3 3 5 5 9 7 6 21 23 17 13 15 14 22 28 32 40 46 49 52 53 55 54 53
57 56 57 56 48 42 53 56 55 44 16 3 2 5 8 14 5 3 3 5 2 4 5 6 11 6 7 4 4 6 4 2 5 7 7 4 2 11 20 19 14 15 16 20 16 19 25 31 33 42 49 55 60 59
59 57 58 57 42 42 49 50 51 45 29 15 10 11 5 5 3 2 3 3 4 6 8 5 10 5 5 5 4 2 3 4 4 6 7 4 6 36 21 17 12 15 11 16 16 22 29 28 30 31 39 47 47 55
59 57 58 52 34 49 48 45 44 38 29 12 6 4 1 4 1 8 9 5 4 12 10 11 5 4 4 4 2 4 6 1 15 6 4 4 26 25 21 13 11 11 9 13 16 21 29 25 30 35 36 39 50 58
62 56 53 37 49 49 48 45 45 30 11 5 5 10 8 7 9 7 8 7 4 5 4 7 6 7 3 4 3 5 4 8 2 5 5 6 31 23 13 12 6 5 7 12 15 17 22 30 44 49 52 51 52 56
65 59 41 50 58 48 45 44 34 19 7 6 6 7 9 14 8 23 21 15 10 4 2 1 2 4 2 5 3 5 2 4 4 8 7 31 32 21 17 11 6 7 7 9 13 14 27 33 36 37 41 45 50 54
67 60 59 64 53 40 41 33 19 7 6 7 12 7 13 8 11 10 21 18 6 2 8 3 4 5 1 4 4 2 8 8 6 7 35 37 26 17 15 17 15 12 11 11 10 20 24 22 24 25 27 32 37 41
73 59 63 54 47 41 35 13 3 6 8 9 13 19 32 31 16 16 15 15 7 7 0 4 4 5 2 4 2 4 8 8 31 42 37 24 20 24 24 19 14 13 16 15 21 22 16 16 18 15 13 22 34 41
72 64 47 45 51 52 16 3 5 7 11 17 12 18 16 6 5 16 8 13 7 4 4 5 7 3 6 7 5 6 16 42 40 37 28 22 24 24 23 20 13 17 19 21 26 21 23 25 28 32 25 28 29 29
65 57 35 35 47 40 9 6 7 8 15 19 25 25 12 14 10 8 9 13 10 9 6 3 4 4 6 7 12 40 51 51 49 37 28 21 16 24 26 19 13 16 29 34 28 22 19 17 22 23 17 20 23 25
51 36 31 37 25 11 9 12 8 11 11 9 27 20 19 12 8 13 8 22 12 11 3 4 6 7 13 23 36 38 43 44 48 46 37 25 17 19 29 31 26 26 28 24 20 19 14 25 16 13 18 23 18 19
42 49 39 22 12 11 10 11 11 13 18 13 27 22 13 17 18 20 12 18 7 5 5 8 21 27 24 26 25 28 38 41 43 25 38 37 30 26 33 30 23 20 21 19 15 9 7 13 11 12 14 18 23 20
51 39 35 14 7 7 13 12 14 27 14 19 32 26 14 9 13 14 14 9 19 29 20 30 37 36 33 30 22 14 20 22 18 24 31 36 40 34 31 31 32 24 16 11 7 10 14 10 13 13 14 20 14 13
45 21 16 7 7 8 15 10 10 8 6 14 26 15 9 5 5 13 6 9 11 21 28 32 34 26 24 25 19 16 13 19 23 33 35 31 28 28 25 25 27 25 18 25 18 14 15 11 14 12 17 23 19 16
17 8 7 7 9 10 11 7 8 8 9 7 6 8 7 9 8 8 4 6 6 30 37 45 40 39 33 24 17 30 30 26 22 29 28 31 32 30 23 21 31 24 26 22 13 17 14 10 13 16 21 25 16 11
7 8 7 11 11 9 6 6 5 5 7 6 6 7 6 11 5 3 1 11 7 47 49 44 33 25 32 24 26 24 37 34 33 34 34 24 31 31 29 25 27 29 24 18 19 23 25 13 7 11 13 17 15 10
7 8 13 8 6 4 4 5 7 7 9 6 5 13 11 7 8 8 17 35 23 16 17 28 35 32 32 27 27 32 38 39 31 23 33 36 39 41 39 33 28 25 24 22 24 25 20 14 12 12 17 14 6 3
6 10 15 8 14 11 8 10 23 10 5 5 5 10 7 7 8 6 29 43 24 11 5 3 6 41 46 36 36 21 27 40 41 25 24 29 38 28 25 34 32 28 23 27 22 19 16 17 18 13 14 9 7 6
12 10 6 21 19 17 6 7 5 2 6 16 23 5 6 5 8 9 15 17 37 24 17 6 8 19 31 18 18 36 31 37 30 29 31 33 31 24 34 26 26 35 34 29 25 24 22 16 11 13 15 8 10 5
10 8 14 14 14 6 5 8 12 11 19 16 5 5 10 12 30 35 34 20 6 23 8 8 11 19 20 26 33 27 25 38 40 47 48 42 36 32 33 31 33 41 37 31 30 26 22 18 19 19 10 6 6 7
3 9 5 7 5 5 8 23 30 35 38 36 33 35 39 30 18 18 18 13 14 12 9 6 14 31 23 28 30 27 23 21 22 36 53 49 39 34 29 24 24 30 32 30 25 28 24 25 28 18 11 8 9 10
2 2 1 5 9 27 32 35 41 44 42 42 42 38 39 23 6 23 26 22 7 14 4 5 12 36 36 40 46 26 33 35 28 22 32 35 35 32 29 24 16 17 25 18 9 18 32 31 26 19 18 12 11 10
7 7 7 5 17 28 37 19 25 23 25 26 27 30 18 8 10 21 49 40 31 26 25 25 36 35 25 55 62 50 16 18 36 32 30 36 36 32 30 26 15 28 27 20 14 21 31 27 26 22 22 14 7 10
20 24 22 22 8 8 14 19 10 18 21 13 25 35 29 17 13 32 36 53 43 31 23 26 38 25 41 38 56 61 38 23 32 38 34 30 27 32 34 24 25 28 26 27 18 16 17 16 19 25 21 11 14 16
Wind_Direction_500mb
346 345 346 347 347 348 349 349 349 348 347 345 342 347 349 352 353 9 49 29 360 292 292 350 357 7 11 37 71 310 12 6 25 55 80 342 66 44 87 2 41 79 43 52 42 325 248 274 347 45 261 307 316 309
345 345 346 347 349 349 350 350 350 353 354 349 344 344 342 343 342 343 348 300 261 261 284 321 29 47 42 18 6 37 108 332 28 81 38 88 39 31 115 82 18 57 33 138 120 229 271 283 190 255 308 306 312 301
345 345 346 347 350 351 350 352 357 358 348 343 338 335 335 334 335 331 338 24 184 282 317 358 48 49 29 31 47 64 16 26 41 34 128 112 79 89 75 61 120 12 26 43 60 73 339 43 8 331 315 306 314 309
345 344 346 348 351 352 352 354 355 348 345 341 338 335 336 336 338 343 1 132 103 330 321 15 80 28 53 75 40 37 18 26 88 73 71 70 92 57 54 131 98 173 47 356 319 347 339 195 346 335 317 307 303 298
345 345 345 348 351 353 354 354 352 351 348 345 344 342 340 345 15 56 91 104 58 40 336 314 325 214 346 1 40 19 24 46 115 57 58 67 82 88 92 82 28 66 176 133 230 360 299 292 320 327 330 323 315 309
344 345 344 347 351 351 350 353 354 354 350 349 350 345 339 359 100 83 92 114 47 24 330 339 331 347 338 345 350 8 37 75 85 97 98 79 72 98 92 108 76 97 89 71 22 346 344 329 326 328 329 325 319 309
344 345 345 348 350 350 351 354 355 355 352 354 5 15 43 115 46 55 90 136 149 34 331 325 344 4 34 354 284 316 32 94 104 105 79 109 77 84 87 106 85 81 60 36 19 5 344 343 336 339 332 329 330 320
345 345 347 349 350 351 351 352 355 355 354 0 26 69 89 80 72 61 55 146 173 246 210 173 278 316 210 59 185 258 199 146 80 99 100 105 81 75 85 118 98 57 34 27 13 8 356 343 349 353 351 346 340 341
345 345 347 349 350 351 349 350 353 354 354 1 27 67 54 20 15 325 320 270 242 247 231 186 192 257 212 192 188 291 136 65 89 89 108 113 8 58 132 135 81 43 39 1 354 10 15 21 12 7 5 2 357 349
345 345 345 347 348 349 349 346 348 352 348 281 298 292 276 291 309 314 316 174 199 220 234 239 229 257 242 126 181 306 42 124 76 258 107 77 90 113 117 110 87 68 28 357 8 7 11 15 14 14 16 16 15 11
345 343 342 344 343 344 346 347 345 349 4 42 233 244 260 284 287 275 288 197 229 281 215 254 233 236 222 105 204 211 179 137 85 264 112 73 126 120 131 105 82 48 21 10 29 33 31 27 22 24 25 30 36 36
345 343 340 340 337 341 343 346 343 345 345 330 294 284 277 215 226 247 231 311 217 234 224 227 249 239 176 194 99 235 135 59 166 166 78 96 102 147 134 113 81 29 13 20 32 44 34 33 28 33 38 34 37 46
344 343 340 339 336 335 339 341 343 337 332 322 329 296 234 176 325 212 183 230 219 178 221 215 259 177 205 192 111 72 83 187 122 61 109 173 155 149 125 112 65 23 24 36 53 52 24 41 41 52 50 50 50 55
343 343 339 339 334 336 337 337 334 332 319 309 291 309 186 237 233 187 179 194 221 117 57 354 172 194 171 82 122 74 249 109 86 82 205 179 163 148 130 117 85 56 50 59 80 52 45 78 79 74 70 66 65 62
342 342 341 340 336 332 323 326 321 317 271 260 252 246 237 266 358 168 151 119 99 63 349 26 25 144 353 98 53 79 32 53 139 188 199 160 157 157 140 121 118 113 89 76 86 75 101 92 86 81 76 70 63 59
342 345 342 332 326 329 323 324 314 294 257 248 239 270 282 7 329 316 146 127 91 108 332 248 99 61 343 140 97 138 129 206 215 178 157 161 166 159 141 126 130 132 120 114 116 118 103 89 75 71 73 73 69 62
337 344 340 335 333 336 328 325 251 240 249 251 247 269 266 282 257 284 156 132 121 78 43 93 86 189 91 68 95 148 188 191 152 153 163 176 174 150 139 137 138 134 133 138 133 117 88 49 19 10 53 77 78 73
332 336 338 335 337 340 331 302 242 239 255 253 258 273 317 328 342 224 160 158 147 131 120 181 146 105 153 173 245 192 125 149 154 156 162 163 157 151 151 157 163 159 152 150 137 107 82 68 75 78 96 102 89 80
333 327 329 335 332 328 295 250 238 260 256 263 278 285 283 305 211 114 182 175 138 163 151 137 115 159 209 196 161 156 159 162 162 162 153 154 159 163 158 146 114 126 130 128 126 113 94 81 101 70 81 82 93 81
332 337 322 319 319 299 289 276 234 257 269 293 304 292 289 257 252 260 217 194 173 136 118 123 177 191 159 158 172 175 173 168 159 153 159 163 170 176 164 142 124 116 127 131 121 110 92 131 120 106 84 82 93 85
337 339 341 320 315 271 268 302 270 264 293 288 284 314 279 218 243 228 209 162 95 31 245 184 162 147 149 145 155 153 174 182 180 188 171 160 153 148 156 154 146 152 140 129 129 127 149 150 129 120 102 107 105 103
329 334 328 328 277 271 268 248 260 302 283 268 288 287 251 252 241 213 182 163 175 207 208 175 165 161 161 162 166 183 172 165 168 181 165 155 158 162 172 176 185 194 195 196 213 136 129 130 181 166 136 135 129 92
327 325 317 271 271 256 268 269 240 272 298 302 345 342 307 266 305 310 185 210 194 192 193 183 174 175 174 163 165 177 197 201 167 163 172 168 155 153 151 170 181 178 170 155 153 171 141 111 146 157 165 144 132 107
309 274 260 260 240 265 285 273 278 280 271 288 320 293 274 317 338 90 240 272 160 167 168 166 168 162 163 168 177 165 157 158 158 169 174 161 164 170 168 180 187 177 176 166 152 145 151 158 148 130 175 167 154 104
280 239 235 263 245 256 260 277 284 346 334 305 271 277 314 2 25 283 307 328 224 178 174 167 173 197 195 185 161 166 179 187 184 183 182 195 176 168 177 179 164 168 172 175 172 174 169 171 181 176 135 139 168 116
252 230 206 250 251 226 292 308 333 343 314 294 299 326 355 36 14 10 355 347 9 124 150 169 192 195 193 189 180 185 191 193 199 191 191 197 188 182 181 182 179 181 194 182 183 194 197 177 151 131 123 145 164 199
266 264 231 291 316 349 330 312 328 295 270 271 322 353 1 29 43 308 344 3 352 195 22 340 276 224 223 215 220 209 192 195 206 210 189 201 201 208 204 197 199 189 178 181 187 198 189 177 164 155 152 165 167 135
258 285 24 349 342 313 269 277 247 299 44 353 332 328 16 149 209 241 309 323 27 14 286 32 37 190 195 212 199 193 184 190 192 194 189 185 193 208 218 204 186 186 193 200 197 186 178 179 180 181 179 142 133 164
254 293 322 315 332 312 297 26 1 359 344 338 311 292 355 347 327 327 336 318 337 42 104 31 74 122 159 174 175 186 191 192 195 184 188 186 183 180 187 195 200 201 204 206 205 214 210 192 189 183 189 194 179 201
199 339 345 328 332 288 303 328 319 315 311 308 294 282 287 292 293 315 329 270 256 268 306 17 180 194 191 200 196 196 215 222 221 219 199 196 196 195 187 193 199 206 208 205 221 215 200 188 183 183 177 195 214 212
187 343 303 246 244 273 300 304 301 302 303 300 309 288 275 268 192 49 41 44 77 40 85 254 222 221 231 220 208 209 224 222 223 214 213 210 206 209 212 215 226 216 185 158 130 194 201 197 203 200 193 201 196 194
224 219 240 266 293 306 312 318 316 305 347 46 21 23 20 35 79 31 21 14 7 11 11 359 334 304 259 214 221 229 239 232 224 204 189 200 207 212 212 209 212 181 166 165 123 131 147 157 166 184 202 215 222 188
252 250 271 282 287 303 319 344 344 356 51 49 27 24 26 33 50 1 9 16 13 2 358 9 346 300 245 221 219 225 221 222 203 191 191 201 207 212 206 201 181 178 184 186 171 169 162 163 184 187 201 230 210 215
Wind_Speed_850mb
68 67 66 64 63 64 62 58 56 52 46 39 34 35 34 35 33 27 6 10 8 9 22 13 24 27 24 22 4 15 8 16 11 9 5 3 5 5 9 5 5 6 6 4 4 2 3 6 7 6 8 15 24 28
66 66 64 63 63 64 61 58 53 47 41 35 31 32 32 33 32 26 19 15 18 15 12 25 10 15 9 24 11 16 7 3 5 6 5 4 7 8 5 5 9 7 3 4 6 3 7 14 3 4 15 30 40 42
64 64 62 63 63 63 61 55 46 44 45 40 36 33 30 31 30 33 28 7 14 9 17 10 12 14 11 21 33 7 7 8 9 6 5 3 12 4 5 3 4 7 15 6 7 3 19 4 18 25 34 41 44 39
61 62 60 62 63 64 61 48 46 52 46 42 37 32 28 25 28 28 12 10 5 4 4 4 12 9 18 7 12 15 10 10 10 15 12 7 7 9 5 4 7 4 7 7 6 10 25 12 33 37 44 47 49 48
60 60 59 60 61 62 56 51 54 49 46 41 33 25 21 20 18 21 20 17 13 8 4 19 6 7 12 16 15 10 12 12 10 11 10 3 6 9 9 7 7 5 5 5 8 12 11 22 41 53 56 56 56 59
61 59 59 59 60 61 54 56 51 48 46 38 29 22 16 8 10 6 8 7 7 14 7 7 14 14 17 8 12 16 17 16 9 11 8 8 7 8 6 5 6 26 27 20 8 31 26 38 47 48 57 59 60 60
60 58 57 59 61 60 53 56 50 45 43 29 22 19 11 15 13 10 7 11 6 2 7 10 15 11 10 11 20 24 8 20 23 12 8 8 6 11 6 5 12 18 17 24 29 38 27 42 43 53 55 59 60 56
57 57 56 58 61 56 55 56 48 42 34 20 14 15 18 14 10 13 11 11 11 5 4 3 7 10 3 4 3 18 11 5 8 10 9 10 6 8 6 14 13 12 13 27 29 31 30 37 40 54 57 57 59 52
57 56 57 58 57 50 57 57 48 38 23 11 10 6 3 4 3 4 6 6 14 10 4 7 6 6 6 12 9 8 1 5 6 6 5 10 5 4 8 20 14 18 17 20 25 27 42 47 48 52 54 60 58 56
57 56 58 56 52 45 55 60 51 40 19 5 7 3 2 4 14 11 2 4 6 6 6 7 6 5 4 2 8 1 3 3 5 5 9 7 6 21 23 17 13 15 14 22 28 32 40 46 49 52 53 55 54 53
57 56 57 56 48 42 53 56 55 44 16 3 2 5 8 14 5 3 3 5 2 4 5 6 11 6 7 4 4 6 4 2 5 7 7 4 2 11 20 19 14 15 16 20 16 19 25 31 33 42 49 55 60 59
59 57 58 57 42 42 49 50 51 45 29 15 10 11 5 5 3 2 3 3 4 6 8 5 10 5 5 5 4 2 3 4 4 6 7 4 6 36 21 17 12 15 11 16 16 22 29 28 30 31 39 47 47 55
59 57 58 52 34 49 48 45 44 38 29 12 6 4 1 4 1 8 9 5 4 12 10 11 5 4 4 4 2 4 6 1 15 6 4 4 26 25 21 13 11 11 9 13 16 21 29 25 30 35 36 39 50 58
62 56 53 37 49 49 48 45 45 30 11 5 5 10 8 7 9 7 8 7 4 5 4 7 6 7 3 4 3 5 4 8 2 5 5 6 31 23 13 12 6 5 7 12 15 17 22 30 44 49 52 51 52 56
65 59 41 50 58 48 45 44 34 19 7 6 6 7 9 14 8 23 21 15 10 4 2 1 2 4 2 5 3 5 2 4 4 8 7 31 32 21 17 11 6 7 7 9 13 14 27 33 36 37 41 45 50 54
67 60 59 64 53 40 41 33 19 7 6 7 12 7 13 8 11 10 21 18 6 2 8 3 4 5 1 4 4 2 8 8 6 7 35 37 26 17 15 17 15 12 11 11 10 20 24 22 24 25 27 32 37 41
73 59 63 54 47 41 35 13 3 6 8 9 13 19 32 31 16 16 15 15 7 7 0 4 4 5 2 4 2 4 8 8 31 42 37 24 20 24 24 19 14 13 16 15 21 22 16 16 18 15 13 22 34 41
72 64 47 45 51 52 16 3 5 7 11 17 12 18 16 6 5 16 8 13 7 4 4 5 7 3 6 7 5 6 16 42 40 37 28 22 24 24 23 20 13 17 19 21 26 21 23 25 28 32 25 28 29 29
65 57 35 35 47 40 9 6 7 8 15 19 25 25 12 14 10 8 9 13 10 9 6 3 4 4 6 7 12 40 51 51 49 37 28 21 16 24 26 19 13 16 29 34 28 22 19 17 22 23 17 20 23 25
51 36 31 37 25 11 9 12 8 11 11 9 27 20 19 12 8 13 8 22 12 11 3 4 6 7 13 23 36 38 43 44 48 46 37 25 17 19 29 31 26 26 28 24 20 19 14 25 16 13 18 23 18 19
42 49 39 22 12 11 10 11 11 13 18 13 27 22 13 17 18 20 12 18 7 5 5 8 21 27 24 26 25 28 38 41 43 25 38 37 30 26 33 30 23 20 21 19 15 9 7 13 11 12 14 18 23 20
51 39 35 14 7 7 13 12 14 27 14 19 32 26 14 9 13 14 14 9 19 29 20 30 37 36 33 30 22 14 20 22 18 24 31 36 40 34 31 31 32 24 16 11 7 10 14 10 13 13 14 20 14 13
45 21 16 7 7 8 15 10 10 8 6 14 26 15 9 5 5 13 6 9 11 21 28 32 34 26 24 25 19 16 13 19 23 33 35 31 28 28 25 25 27 25 18 25 18 14 15 11 14 12 17 23 19 16
17 8 7 7 9 10 11 7 8 8 9 7 6 8 7 9 8 8 4 6 6 30 37 45 40 39 33 24 17 30 30 26 22 29 28 31 32 30 23 21 31 24 26 22 13 17 14 10 13 16 21 25 16 11
7 8 7 11 11 9 6 6 5 5 7 6 6 7 6 11 5 3 1 11 7 47 49 44 33 25 32 24 26 24 37 34 33 34 34 24 31 31 29 25 27 29 24 18 19 23 25 13 7 11 13 17 15 10
7 8 13 8 6 4 4 5 7 7 9 6 5 13 11 7 8 8 17 35 23 16 17 28 35 32 32 27 27 32 38 39 31 23 33 36 39 41 39 33 28 25 24 22 24 25 20 14 12 12 17 14 6 3
6 10 15 8 14 11 8 10 23 10 5 5 5 10 7 7 8 6 29 43 24 11 5 3 6 41 46 36 36 21 27 40 41 25 24 29 38 28 25 34 32 28 23 27 22 19 16 17 18 13 14 9 7 6
12 10 6 21 19 17 6 7 5 2 6 16 23 5 6 5 8 9 15 17 37 24 17 6 8 19 31 18 18 36 31 37 30 29 31 33 31 24 34 26 26 35 34 29 25 24 22 16 11 13 15 8 10 5
10 8 14 14 14 6 5 8 12 11 19 16 5 5 10 12 30 35 34 20 6 23 8 8 11 19 20 26 33 27 25 38 40 47 48 42 36 32 33 31 33 41 37 31 30 26 22 18 19 19 10 6 6 7
3 9 5 7 5 5 8 23 30 35 38 36 33 35 39 30 18 18 18 13 14 12 9 6 14 31 23 28 30 27 23 21 22 36 53 49 39 34 29 24 24 30 32 30 25 28 24 25 28 18 11 8 9 10
2 2 1 5 9 27 32 35 41 44 42 42 42 38 39 23 6 23 26 22 7 14 4 5 12 36 36 40 46 26 33 35 28 22 32 35 35 32 29 24 16 17 25 18 9 18 32 31 26 19 18 12 11 10
7 7 7 5 17 28 37 19 25 23 25 26 27 30 18 8 10 21 49 40 31 26 25 25 36 35 25 55 62 50 16 18 36 32 30 36 36 32 30 26 15 28 27 20 14 21 31 27 26 22 22 14 7 10
20 24 22 22 8 8 14 19 10 18 21 13 25 35 29 17 13 32 36 53 43 31 23 26 38 25 41 38 56 61 38 23 32 38 34 30 27 32 34 24 25 28 26 27 18 16 17 16 19 25 21 11 14 16
Wind_Direction_850mb
346 345 346 347 347 348 349 349 349 348 347 345 342 347 349 352 353 9 49 29 360 292 292 350 357 7 11 37 71 310 12 6 25 55 80 342 66 44 87 2 41 79 43 52 42 325 248 274 347 45 261 307 316 309
345 345 346 347 349 349 350 350 350 353 354 349 344 344 342 343 342 343 348 300 261 261 284 321 29 47 42 18 6 37 108 332 28 81 38 88 39 31 115 82 18 57 33 138 120 229 271 283 190 255 308 306 312 301
345 345 346 347 350 351 350 352 357 358 348 343 338 335 335 334 335 331 338 24 184 282 317 358 48 49 29 31 47 64 16 26 41 34 128 112 79 89 75 61 120 12 26 43 60 73 339 43 8 331 315 306 314 309
345 344 346 348 351 352 352 354 355 348 345 341 338 335 336 336 338 343 1 132 103 330 321 15 80 28 53 75 40 37 18 26 88 73 71 70 92 57 54 131 98 173 47 356 319 347 339 195 346 335 317 307 303 298
345 345 345 348 351 353 354 354 352 351 348 345 344 342 340 345 15 56 91 104 58 40 336 314 325 214 346 1 40 19 24 46 115 57 58 67 82 88 92 82 28 66 176 133 230 360 299 292 320 327 330 323 315 309
344 345 344 347 351 351 350 353 354 354 350 349 350 345 339 359 100 83 92 114 47 24 330 339 331 347 338 345 350 8 37 75 85 97 98 79 72 98 92 108 76 97 89 71 22 346 344 329 326 328 329 325 319 309
344 345 345 348 350 350 351 354 355 355 352 354 5 15 43 115 46 55 90 136 149 34 331 325 344 4 34 354 284 316 32 94 104 105 79 109 77 84 87 106 85 81 60 36 19 5 344 343 336 339 332 329 330 320
345 345 347 349 350 351 351 352 355 355 354 0 26 69 89 80 72 61 55 146 173 246 210 173 278 316 210 59 185 258 199 146 80 99 100 105 81 75 85 118 98 57 34 27 13 8 356 343 349 353 351 346 340 341
345 345 347 349 350 351 349 350 353 354 354 1 27 67 54 20 15 325 320 270 242 247 231 186 192 257 212 192 188 291 136 65 89 89 108 113 8 58 132 135 81 43 39 1 354 10 15 21 12 7 5 2 357 349
345 345 345 347 348 349 349 346 348 352 348 281 298 292 276 291 309 314 316 174 199 220 234 239 229 257 242 126 181 306 42 124 76 258 107 77 90 113 117 110 87 68 28 357 8 7 11 15 14 14 16 16 15 11
345 343 342 344 343 344 346 347 345 349 4 42 233 244 260 284 287 275 288 197 229 281 215 254 233 236 222 105 204 211 179 137 85 264 112 73 126 120 131 105 82 48 21 10 29 33 31 27 22 24 25 30 36 36
345 343 340 340 337 341 343 346 343 345 345 330 294 284 277 215 226 247 231 311 217 234 224 227 249 239 176 194 99 235 135 59 166 166 78 96 102 147 134 113 81 29 13 20 32 44 34 33 28 33 38 34 37 46
344 343 340 339 336 335 339 341 343 337 332 322 329 296 234 176 325 212 183 230 219 178 221 215 259 177 205 192 111 72 83 187 122 61 109 173 155 149 125 112 65 23 24 36 53 52 24 41 41 52 50 50 50 55
343 343 339 339 334 336 337 337 334 332 319 309 291 309 186 237 233 187 179 194 221 117 57 354 172 194 171 82 122 74 249 109 86 82 205 179 163 148 130 117 85 56 50 59 80 52 45 78 79 74 70 66 65 62
342 342 341 340 336 332 323 326 321 317 271 260 252 246 237 266 358 168 151 119 99 63 349 26 25 144 353 98 53 79 32 53 139 188 199 160 157 157 140 121 118 113 89 76 86 75 101 92 86 81 76 70 63 59
342 345 342 332 326 329 323 324 314 294 257 248 239 270 282 7 329 316 146 127 91 108 332 248 99 61 343 140 97 138 129 206 215 178 157 161 166 159 141 126 130 132 120 114 116 118 103 89 75 71 73 73 69 62
337 344 340 335 333 336 328 325 251 240 249 251 247 269 266 282 257 284 156 132 121 78 43 93 86 189 91 68 95 148 188 191 152 153 163 176 174 150 139 137 138 134 133 138 133 117 88 49 19 10 53 77 78 73
332 336 338 335 337 340 331 302 242 239 255 253 258 273 317 328 342 224 160 158 147 131 120 181 146 105 153 173 245 192 125 149 154 156 162 163 157 151 151 157 163 159 152 150 137 107 82 68 75 78 96 102 89 80
333 327 329 335 332 328 295 250 238 260 256 263 278 285 283 305 211 114 182 175 138 163 151 137 115 159 209 196 161 156 159 162 162 162 153 154 159 163 158 146 114 126 130 128 126 113 94 81 101 70 81 82 93 81
332 337 322 319 319 299 289 276 234 257 269 293 304 292 289 257 252 260 217 194 173 136 118 123 177 191 159 158 172 175 173 168 159 153 159 163 170 176 164 142 124 116 127 131 121 110 92 131 120 106 84 82 93 85
337 339 341 320 315 271 268 302 270 264 293 288 284 314 279 218 243 228 209 162 95 31 245 184 162 147 149 145 155 153 174 182 180 188 171 160 153 148 156 154 146 152 140 129 129 127 149 150 129 120 102 107 105 103
329 334 328 328 277 271 268 248 260 302 283 268 288 287 251 252 241 213 182 163 175 207 208 175 165 161 161 162 166 183 172 165 168 181 165 155 158 162 172 176 185 194 195 196 213 136 129 130 181 166 136 135 129 92
327 325 317 271 271 256 268 269 240 272 298 302 345 342 307 266 305 310 185 210 194 192 193 183 174 175 174 163 165 177 197 201 167 163 172 168 155 153 151 170 181 178 170 155 153 171 141 111 146 157 165 144 132 107
309 274 260 260 240 265 285 273 278 280 271 288 320 293 274 317 338 90 240 272 160 167 168 166 168 162 163 168 177 165 157 158 158 169 174 161 164 170 168 180 187 177 176 166 152 145 151 158 148 130 175 167 154 104
280 239 235 263 245 256 260 277 284 346 334 305 271 277 314 2 25 283 307 328 224 178 174 167 173 197 195 185 161 166 179 187 184 183 182 195 176 168 177 179 164 168 172 175 172 174 169 171 181 176 135 139 168 116
252 230 206 250 251 226 292 308 333 343 314 294 299 326 355 36 14 10 355 347 9 124 150 169 192 195 193 189 180 185 191 193 199 191 191 197 188 182 181 182 179 181 194 182 183 194 197 177 151 131 123 145 164 199
266 264 231 291 316 349 330 312 328 295 270 271 322 353 1 29 43 308 344 3 352 195 22 340 276 224 223 215 220 209 192 195 206 210 189 201 201 208 204 197 199 189 178 181 187 198 189 177 164 155 152 165 167 135
258 285 24 349 342 313 269 277 247 299 44 353 332 328 16 149 209 241 309 323 27 14 286 32 37 190 195 212 199 193 184 190 192 194 189 185 193 208 218 204 186 186 193 200 197 186 178 179 180 181 179 142 133 164
254 293 322 315 332 312 297 26 1 359 344 338 311 292 355 347 327 327 336 318 337 42 104 31 74 122 159 174 175 186 191 192 195 184 188 186 183 180 187 195 200 201 204 206 205 214 210 192 189 183 189 194 179 201
199 339 345 328 332 288 303 328 319 315 311 308 294 282 287 292 293 315 329 270 256 268 306 17 180 194 191 200 196 196 215 222 221 219 199 196 196 195 187 193 199 206 208 205 221 215 200 188 183 183 177 195 214 212
187 343 303 246 244 273 300 304 301 302 303 300 309 288 275 268 192 49 41 44 77 40 85 254 222 221 231 220 208 209 224 222 223 214 213 210 206 209 212 215 226 216 185 158 130 194 201 197 203 200 193 201 196 194
224 219 240 266 293 306 312 318 316 305 347 46 21 23 20 35 79 31 21 14 7 11 11 359 334 304 259 214 221 229 239 232 224 204 189 200 207 212 212 209 212 181 166 165 123 131 147 157 166 184 202 215 222 188
252 250 271 282 287 303 319 344 344 356 51 49 27 24 26 33 50 1 9 16 13 2 358 9 346 300 245 221 219 225 221 222 203 191 191 201 207 212 206 201 181 178 184 186 171 169 162 163 184 187 201 230 210 215